Blattenbach Aussen Messungen

Zurück zum Überblick

Zeitpunkt Temperatur Temperatur Kabelsensor Luftfeuchte
22.01.2019 09:41:56 -1,2 C 2,1 C 76,0%
22.01.2019 09:34:56 -1,2 C 2,1 C 76,0%
22.01.2019 09:27:55 -1,3 C 2,1 C 77,0%
22.01.2019 09:20:59 -1,3 C 2,0 C 76,0%
22.01.2019 09:13:57 -1,2 C 2,0 C 77,0%
22.01.2019 09:06:55 -1,5 C 2,0 C 78,0%
22.01.2019 08:59:56 -1,7 C 2,0 C 78,0%
22.01.2019 08:52:56 -1,9 C 2,0 C 78,0%
22.01.2019 08:45:57 -2,1 C 2,1 C 78,0%
22.01.2019 08:38:57 -2,1 C 2,1 C 78,0%
22.01.2019 08:31:54 -2,3 C 2,1 C 79,0%
22.01.2019 08:24:58 -2,4 C 2,1 C 78,0%
22.01.2019 08:17:58 -2,4 C 2,1 C 79,0%
22.01.2019 08:10:55 -2,5 C 2,1 C 79,0%
22.01.2019 08:03:59 -2,7 C 2,1 C 78,0%
22.01.2019 07:56:57 -2,7 C 2,1 C 79,0%
22.01.2019 07:49:58 -2,9 C 2,1 C 79,0%
22.01.2019 07:42:56 -3,0 C 2,1 C 79,0%
22.01.2019 07:35:57 -3,4 C 2,1 C 79,0%
22.01.2019 07:28:55 -3,8 C 2,1 C 79,0%
22.01.2019 07:21:55 -4,0 C 2,1 C 79,0%
22.01.2019 07:14:54 -4,1 C 2,2 C 78,0%
22.01.2019 07:07:59 -4,1 C 2,2 C 78,0%
22.01.2019 07:00:58 -4,0 C 2,2 C 78,0%
22.01.2019 06:53:55 -3,9 C 2,2 C 78,0%
22.01.2019 06:46:57 -3,8 C 2,2 C 78,0%
22.01.2019 06:39:57 -3,7 C 2,3 C 78,0%
22.01.2019 06:32:54 -3,6 C 2,3 C 78,0%
22.01.2019 06:25:56 -3,5 C 2,3 C 78,0%
22.01.2019 06:18:56 -3,5 C 2,3 C 79,0%
22.01.2019 06:11:55 -3,4 C 2,3 C 78,0%
22.01.2019 06:04:57 -3,3 C 2,4 C 78,0%
22.01.2019 05:57:56 -3,2 C 2,4 C 78,0%
22.01.2019 05:50:54 -3,0 C 2,4 C 79,0%
22.01.2019 05:43:39 -3,0 C 2,4 C 79,0%
22.01.2019 05:36:42 -2,9 C 2,4 C 79,0%
22.01.2019 05:29:40 -3,1 C 2,5 C 78,0%
22.01.2019 05:22:42 -2,9 C 2,5 C 78,0%
22.01.2019 05:15:42 -2,9 C 2,5 C 78,0%
22.01.2019 05:08:42 -2,8 C 2,5 C 79,0%
22.01.2019 05:01:39 -2,8 C 2,5 C 78,0%
22.01.2019 04:54:43 -2,7 C 2,6 C 78,0%
22.01.2019 04:47:41 -2,5 C 2,6 C 77,0%
22.01.2019 04:40:42 -2,5 C 2,6 C 78,0%
22.01.2019 04:33:40 -2,3 C 2,6 C 78,0%
22.01.2019 04:26:39 -2,1 C 2,6 C 77,0%
22.01.2019 04:19:39 -2,0 C 2,6 C 78,0%
22.01.2019 04:12:43 -1,9 C 2,6 C 78,0%
22.01.2019 04:05:40 -1,7 C 2,6 C 77,0%
22.01.2019 03:58:42 -1,5 C 2,6 C 77,0%